This is the latest recevied weather packets stored in our database for station/object W7TTE. If no packets are shown the sender has not sent any weather packets the latest 10 day(s).
| Time | Temp. | Humidity | Pressure | Rain* | Wind** | Luminosity | Snow |
|---|---|---|---|---|---|---|---|
| 1777711200 | 20° C | 33% | 1012.9 hPa | 0 mm | - | 0 W/m² | - |
| 1777710897 | 19.44° C | 33% | 1013.1 hPa | 0 mm | - | 0 W/m² | - |
| 1777710593 | 20° C | 31% | 1013.1 hPa | 0 mm | - | 0 W/m² | - |
| 1777710290 | 20° C | 32% | 1013 hPa | 0 mm | - | 0 W/m² | - |
| 1777709988 | 20.56° C | 31% | 1013 hPa | 0 mm | - | 0 W/m² | - |
| 1777709686 | 20.56° C | 29% | 1012.9 hPa | 0 mm | - | 0 W/m² | - |
| 1777709382 | 20.56° C | 30% | 1012.9 hPa | 0 mm | - | 0 W/m² | - |
| 1777709079 | 20.56° C | 29% | 1012.9 hPa | 0 mm | - | 0 W/m² | - |
| 1777708777 | 20.56° C | 30% | 1012.8 hPa | 0 mm | - | 0 W/m² | - |
| 1777708474 | 21.11° C | 28% | 1012.7 hPa | 0 mm | - | 0 W/m² | - |
| 1777708173 | 21.67° C | 27% | 1012.8 hPa | 0 mm | - | 0 W/m² | - |
| 1777707870 | 21.67° C | 26% | 1012.6 hPa | 0 mm | - | 0 W/m² | - |
| 1777707566 | 22.22° C | 25% | 1012.6 hPa | 0 mm | - | 0 W/m² | - |
| 1777707262 | 22.78° C | 25% | 1012.8 hPa | 0 mm | - | 0 W/m² | - |
| 1777706960 | 22.78° C | 25% | 1012.4 hPa | 0 mm | - | 0 W/m² | - |
| 1777706657 | 23.33° C | 24% | 1012.6 hPa | 0 mm | - | 0 W/m² | - |
| 1777706355 | 22.78° C | 23% | 1012.6 hPa | 0 mm | - | 0 W/m² | - |
| 1777706052 | 23.89° C | 23% | 1012.7 hPa | 0 mm | - | 0 W/m² | - |
| 1777705751 | 23.89° C | 22% | 1012.4 hPa | 0 mm | - | 0 W/m² | - |
| 1777705448 | 23.89° C | 23% | 1012.5 hPa | 0 mm | - | 0 W/m² | - |
| 1777705147 | 23.89° C | 23% | 1012.6 hPa | 0 mm | - | 0 W/m² | - |
| 1777704844 | 23.33° C | 23% | 1012.6 hPa | 0 mm | - | 0 W/m² | - |
| 1777704542 | 23.33° C | 23% | 1012.3 hPa | 0 mm | - | 0 W/m² | - |
| 1777704240 | 23.33° C | 23% | 1012.5 hPa | 0 mm | - | 0 W/m² | - |
| 1777703936 | 23.33° C | 23% | 1012.6 hPa | 0 mm | - | 0 W/m² | - |
* Rain latest hour (hover to see other rain measurements)
** Current wind speed in m/s (hover to see current wind gust speed)